Three Rivers, MI

3:31 PM EDT on September 20, 2017 (GMT -0400)
Three Rivers Municipal-Haines

Weather History for KHAI - December, 2007

Change the Weather History Date:

Saturday, December 8, 2007

  Actual Average Record
Temperature  
Mean Temperature 22 °F -  
Max Temperature 30 °F 38 °F 64 °F (1966)
Min Temperature 15 °F 25 °F 1 °F (1977)
Degree Days  
Heating Degree Days 42    
Moisture  
Dew Point 21 °F    
Average Humidity 82    
Maximum Humidity 100    
Minimum Humidity 69    
Precipitation  
Precipitation 0.00 in - - ()
Sea Level Pressure  
Sea Level Pressure 30.32 in    
Wind  
Wind Speed 4 mph (NNW)    
Max Wind Speed 7 mph    
Max Gust Speed -    
Visibility 8 miles    
Events Fog    
Averages and records for this station are not official NWS values.
T = Trace of Precipitation, MM = Missing Value Source: NWS Daily Summary

Daily Weather History Graph

Daily Weather History Graph

Search for Another Location

Airport or City:

Trip Planner

Search our weather history database for the weather conditions in past years. The results will help you decide how hot, cold, wet, or windy it might be!

Date:

Astronomy

Dec. 08, 2007 Rise Set
Actual Time 7:57 AM EST 5:10 PM EST
Civil Twilight 7:25 AM EST 5:42 PM EST
Nautical Twilight 6:50 AM EST 6:17 PM EST
Astronomical Twilight 6:17 AM EST 6:51 PM EST
Moon 7:14 AM EST (12/8) 4:03 PM EST (12/8)
Length of Visible Light 10h 16m
Length of Day
9h 13m
Waning Crescent, 1% of the Moon is Illuminated
Dec 8
Waning Crescent
Dec 9
New
Dec 17
First Quarter
Dec 23
Full
Dec 31
Last Quarter

Hourly Weather History & Observations

Time (EST) Temp. Windchill Dew Point Humidity Pressure Visibility Wind Dir Wind Speed Gust Speed Precip Events Conditions
12:16 AM 30.2 °F 25.4 °F 28.4 °F 93% 30.19 in 10.0 mi WSW 4.6 mph - N/A   Overcast
12:37 AM 30.2 °F 24.3 °F 28.4 °F 93% 30.19 in 7.0 mi West 5.8 mph - N/A   Overcast
12:55 AM 30.2 °F 23.4 °F 28.4 °F 93% 30.20 in 7.0 mi WSW 6.9 mph - N/A   Overcast
1:17 AM 30.2 °F 24.3 °F 28.4 °F 93% 30.19 in 7.0 mi WSW 5.8 mph - N/A   Overcast
1:37 AM 30.2 °F 25.4 °F 28.4 °F 93% 30.20 in 7.0 mi WSW 4.6 mph - N/A   Overcast
1:55 AM 30.2 °F 26.7 °F 28.4 °F 93% 30.20 in 7.0 mi WSW 3.5 mph - N/A   Overcast
2:17 AM 30.2 °F - 28.4 °F 93% 30.20 in 7.0 mi Calm Calm - N/A   Mostly Cloudy
2:37 AM 30.2 °F 26.7 °F 26.6 °F 86% 30.21 in 7.0 mi WSW 3.5 mph - N/A   Mostly Cloudy
2:55 AM 30.2 °F - 26.6 °F 86% 30.22 in 7.0 mi Calm Calm - N/A   Overcast
3:17 AM 30.2 °F 23.4 °F 28.4 °F 93% 30.23 in 7.0 mi West 6.9 mph - N/A   Overcast
3:36 AM 28.4 °F 22.2 °F 26.6 °F 93% 30.22 in 7.0 mi West 5.8 mph - N/A   Mostly Cloudy
3:55 AM 26.6 °F 20.0 °F 23.0 °F 86% 30.23 in 7.0 mi WNW 5.8 mph - N/A   Clear
4:16 AM 26.6 °F - 23.0 °F 86% 30.23 in 7.0 mi Calm Calm - N/A   Clear
5:17 AM 26.6 °F 22.6 °F 24.8 °F 93% 30.25 in 7.0 mi West 3.5 mph - N/A   Clear
5:37 AM 23.0 °F 18.4 °F 21.2 °F 93% 30.25 in 7.0 mi West 3.5 mph - N/A   Clear
5:55 AM 23.0 °F - 21.2 °F 93% 30.26 in 7.0 mi Calm Calm - N/A   Clear
6:17 AM 23.0 °F 18.4 °F 21.2 °F 93% 30.27 in 7.0 mi WNW 3.5 mph - N/A   Clear
6:37 AM 21.2 °F - 21.2 °F 100% 30.27 in 5.0 mi Calm Calm - N/A   Clear
6:55 AM 21.2 °F 16.4 °F 19.4 °F 93% 30.29 in 4.0 mi WNW 3.5 mph - N/A   Clear
7:16 AM 19.4 °F 12.8 °F 19.4 °F 100% 30.31 in 5.0 mi West 4.6 mph - N/A   Clear
7:36 AM 19.4 °F 14.3 °F 17.6 °F 93% 30.32 in 5.0 mi West 3.5 mph - N/A   Clear
7:55 AM 17.6 °F - 17.6 °F 100% 30.32 in 5.0 mi Calm Calm - N/A   Clear
8:16 AM 17.6 °F - 15.8 °F 93% 30.32 in 1.0 mi Calm Calm - N/A   Mist
8:37 AM 17.6 °F - 17.6 °F 100% 30.32 in 0.2 mi Calm Calm - N/A Fog Light Freezing Fog
8:55 AM 15.8 °F - 14.0 °F 93% 30.33 in 0.5 mi Calm Calm - N/A Fog Light Freezing Fog
9:17 AM 19.4 °F - 19.4 °F 100% 30.34 in 0.2 mi Calm Calm - N/A Fog Light Freezing Fog
9:37 AM 21.2 °F - 19.4 °F 93% 30.35 in 0.5 mi Calm Calm - N/A Fog Light Freezing Fog
9:55 AM 23.0 °F 18.4 °F 21.2 °F 93% 30.36 in 7.0 mi NNE 3.5 mph - N/A   Clear
10:17 AM 24.8 °F 16.9 °F 23.0 °F 93% 30.36 in 10.0 mi NNE 6.9 mph - N/A   Clear
10:36 AM 26.6 °F 20.0 °F 23.0 °F 86% 30.37 in 10.0 mi NE 5.8 mph - N/A   Clear
10:55 AM 26.6 °F 22.6 °F 19.4 °F 74% 30.39 in 10.0 mi NE 3.5 mph - N/A   Scattered Clouds
11:16 AM 28.4 °F 22.2 °F 19.4 °F 69% 30.39 in 10.0 mi NE 5.8 mph - N/A   Scattered Clouds
11:36 AM 28.4 °F 24.6 °F 19.4 °F 69% 30.40 in 10.0 mi NNE 3.5 mph - N/A   Scattered Clouds
11:55 AM 28.4 °F 23.3 °F 19.4 °F 69% 30.39 in 10.0 mi NNE 4.6 mph - N/A   Clear
12:17 PM 28.4 °F 23.3 °F 19.4 °F 69% 30.38 in 10.0 mi NE 4.6 mph - N/A   Clear
12:37 PM 28.4 °F 24.6 °F 19.4 °F 69% 30.39 in 10.0 mi NNW 3.5 mph - N/A   Clear
12:55 PM 28.4 °F 22.2 °F 19.4 °F 69% 30.37 in 10.0 mi North 5.8 mph - N/A   Clear
1:17 PM 28.4 °F 24.6 °F 19.4 °F 69% 30.37 in 10.0 mi North 3.5 mph - N/A   Scattered Clouds
1:37 PM 28.4 °F 23.3 °F 19.4 °F 69% 30.37 in 10.0 mi North 4.6 mph - N/A   Mostly Cloudy
1:55 PM 28.4 °F 22.2 °F 19.4 °F 69% 30.37 in 10.0 mi NNE 5.8 mph - N/A   Overcast
2:16 PM 28.4 °F 22.2 °F 19.4 °F 69% 30.37 in 10.0 mi North 5.8 mph - N/A   Overcast
2:36 PM 28.4 °F 23.3 °F 19.4 °F 69% 30.37 in 10.0 mi NNE 4.6 mph - N/A   Overcast
2:55 PM 28.4 °F 24.6 °F 19.4 °F 69% 30.38 in 10.0 mi NNE 3.5 mph - N/A   Overcast
3:17 PM 28.4 °F 23.3 °F 19.4 °F 69% 30.38 in 10.0 mi NNE 4.6 mph - N/A   Mostly Cloudy
3:37 PM 28.4 °F 22.2 °F 19.4 °F 69% 30.37 in 10.0 mi NNE 5.8 mph - N/A   Mostly Cloudy
3:55 PM 28.4 °F 23.3 °F 19.4 °F 69% 30.37 in 10.0 mi NNE 4.6 mph - N/A   Overcast
4:17 PM 28.4 °F 23.3 °F 19.4 °F 69% 30.37 in 10.0 mi NE 4.6 mph - N/A   Overcast
4:37 PM 28.4 °F 24.6 °F 19.4 °F 69% 30.37 in 10.0 mi ENE 3.5 mph - N/A   Overcast
4:55 PM 28.4 °F 24.6 °F 19.4 °F 69% 30.38 in 10.0 mi ENE 3.5 mph - N/A   Overcast
5:17 PM 28.4 °F - 19.4 °F 69% 30.39 in 10.0 mi Calm Calm - N/A   Overcast
5:37 PM 28.4 °F - 19.4 °F 69% 30.40 in 10.0 mi Calm Calm - N/A   Overcast
5:55 PM 28.4 °F - 19.4 °F 69% 30.41 in 10.0 mi Calm Calm - N/A   Overcast
6:36 PM 28.4 °F - 19.4 °F 69% 30.40 in 10.0 mi Calm Calm - N/A   Overcast
6:55 PM 28.4 °F 24.6 °F 19.4 °F 69% 30.38 in 10.0 mi ENE 3.5 mph - N/A   Overcast
7:17 PM 28.4 °F 24.6 °F 19.4 °F 69% 30.40 in 10.0 mi NE 3.5 mph - N/A   Overcast
7:37 PM 28.4 °F 24.6 °F 19.4 °F 69% 30.41 in 10.0 mi North 3.5 mph - N/A   Overcast
7:55 PM 28.4 °F 24.6 °F 19.4 °F 69% 30.40 in 10.0 mi NNE 3.5 mph - N/A   Overcast
8:17 PM 28.4 °F 24.6 °F 19.4 °F 69% 30.40 in 10.0 mi NNE 3.5 mph - N/A Snow Light Snow
8:37 PM 26.6 °F 22.6 °F 19.4 °F 74% 30.40 in 5.0 mi ENE 3.5 mph - N/A Snow Light Snow
8:55 PM 26.6 °F - 21.2 °F 80% 30.42 in 10.0 mi Calm Calm - N/A   Overcast
9:16 PM 26.6 °F 22.6 °F 21.2 °F 80% 30.39 in 10.0 mi ENE 3.5 mph - N/A   Overcast
9:36 PM 26.6 °F 22.6 °F 19.4 °F 74% 30.39 in 10.0 mi ENE 3.5 mph - N/A   Overcast
9:55 PM 26.6 °F - 19.4 °F 74% 30.40 in 10.0 mi Calm Calm - N/A   Overcast
10:17 PM 26.6 °F 22.6 °F 19.4 °F 74% 30.39 in 10.0 mi NE 3.5 mph - N/A   Overcast
10:37 PM 26.6 °F 22.6 °F 21.2 °F 80% 30.39 in 10.0 mi ENE 3.5 mph - N/A   Overcast
10:55 PM 28.4 °F - 21.2 °F 74% 30.40 in 10.0 mi Calm Calm - N/A   Overcast
11:37 PM 26.6 °F 19.1 °F 21.2 °F 80% 30.39 in 4.0 mi ENE 6.9 mph - N/A Snow Light Snow
11:55 PM 26.6 °F 20.0 °F 21.2 °F 80% 30.39 in 10.0 mi ENE 5.8 mph - N/A   Overcast